FW4741 Weather Reports


Display with metric or nautical units.
time (UTC)temp
F
wind
direction
speed
MPH
gust
MPH
rain 1hr
in
rain 24hr
in
rain mn
in
humidity
%
barometer
mb
20260905193604 76 77 2.0 6.0 0.00 0.00 0.00 65 1021.6
20260905193104 77 77 2.0 6.0 0.00 0.00 0.00 62 1021.7
20260905192604 77 77 2.0 6.0 0.00 0.00 0.00 63 1021.7
20260905192104 77 77 2.0 6.0 0.00 0.00 0.00 62 1021.9
20260905191604 77 77 2.0 6.0 0.00 0.00 0.00 63 1021.9
20260905191103 77 77 2.0 6.0 0.00 0.00 0.00 63 1021.9
20260905190604 76 77 2.0 6.0 0.00 0.00 0.00 63 1021.9
20260905190104 76 77 2.0 6.0 0.00 0.00 0.00 64 1022.0
20260905185604 76 77 2.0 6.0 0.00 0.00 0.00 65 1022.0
20260905185104 76 77 2.0 6.0 0.00 0.00 0.00 64 1022.1
20260905184603 76 77 2.0 6.0 0.00 0.00 0.00 65 1022.2
20260905183603 76 77 2.0 6.0 0.00 0.00 0.00 64 1022.3
20260905182603 76 77 2.0 6.0 0.00 0.00 0.00 64 1022.4
20260905182103 75 77 2.0 6.0 0.00 0.00 0.00 65 1022.4
20260905181604 76 77 2.0 6.0 0.00 0.00 0.00 64 1022.5
20260905181103 76 77 2.0 6.0 0.00 0.00 0.00 66 1022.5
20260905180604 76 77 2.0 6.0 0.00 0.00 0.00 64 1022.5
20260905180104 77 77 2.0 6.0 0.00 0.00 0.00 56 1022.7
20260905175603 76 77 2.0 6.0 0.00 0.00 0.00 54 1022.7
20260905175104 76 77 2.0 6.0 0.00 0.00 0.00 56 1022.7
20260905174604 76 77 2.0 6.0 0.00 0.00 0.00 55 1022.7
20260905174104 76 77 2.0 6.0 0.00 0.00 0.00 56 1022.8
20260905173604 75 77 2.0 6.0 0.00 0.00 0.00 57 1022.8
20260905173104 75 77 2.0 6.0 0.00 0.00 0.00 58 1022.8
20260905172604 75 77 2.0 6.0 0.00 0.00 0.00 59 1022.9
20260905172103 76 77 2.0 6.0 0.00 0.00 0.00 57 1022.9
20260905171603 76 77 2.0 6.0 0.00 0.00 0.00 58 1022.9
20260905171104 75 77 2.0 6.0 0.00 0.00 0.00 60 1022.9
20260905170604 74 77 2.0 6.0 0.00 0.00 0.00 63 1022.9
20260905170104 74 77 2.0 6.0 0.00 0.00 0.00 61 1023.0
20260905165604 73 77 2.0 6.0 0.00 0.00 0.00 64 1023.1
20260905165104 73 77 2.0 6.0 0.00 0.00 0.00 66 1023.1
20260905164603 72 77 2.0 6.0 0.00 0.00 0.00 66 1023.1
20260905164104 71 77 2.0 6.0 0.00 0.00 0.00 69 1023.1
20260905163104 71 77 2.0 6.0 0.00 0.00 0.00 70 1023.2
20260905162603 71 77 2.0 6.0 0.00 0.00 0.00 70 1023.2
20260905162104 71 77 2.0 6.0 0.00 0.00 0.00 71 1023.3
20260905161604 71 77 2.0 6.0 0.00 0.00 0.00 72 1023.3
20260905160603 71 77 2.0 6.0 0.00 0.00 0.00 72 1023.4
20260905155604 70 77 2.0 6.0 0.00 0.00 0.00 74 1023.4
20260905155103 70 77 2.0 6.0 0.00 0.00 0.00 74 1023.4
20260905154104 69 77 2.0 6.0 0.00 0.00 0.00 74 1023.5
20260905153603 69 77 2.0 6.0 0.00 0.00 0.00 75 1023.5
20260905153104 69 77 2.0 6.0 0.00 0.00 0.00 74 1023.6
20260905152604 68 77 2.0 6.0 0.00 0.00 0.00 76 1023.5
20260905152103 67 77 2.0 6.0 0.00 0.00 0.00 76 1023.6
20260905151604 66 77 2.0 6.0 0.00 0.00 0.00 78 1023.7
20260905151103 66 77 2.0 6.0 0.00 0.00 0.00 78 1023.8
20260905150603 65 77 2.0 6.0 0.00 0.00 0.00 78 1023.8
20260905150104 65 77 2.0 6.0 0.00 0.00 0.00 80 1023.9
20260905145603 64 77 2.0 6.0 0.00 0.00 0.00 78 1023.9
20260905145104 63 77 2.0 6.0 0.00 0.00 0.00 79 1023.8
20260905144604 63 77 2.0 6.0 0.00 0.00 0.00 81 1023.8
20260905143604 62 77 2.0 6.0 0.00 0.00 0.00 82 1023.7
20260905143103 61 77 2.0 6.0 0.00 0.00 0.00 83 1023.8
20260905141603 60 77 2.0 6.0 0.00 0.00 0.00 85 1023.8
20260905141104 60 77 2.0 6.0 0.00 0.00 0.00 85 1023.7
20260905140604 60 77 2.0 6.0 0.00 0.00 0.00 85 1023.7
20260905140104 60 77 2.0 6.0 0.00 0.00 0.00 86 1023.6
20260905135603 60 77 2.0 6.0 0.00 0.00 0.00 87 1023.6
20260905135104 60 77 2.0 6.0 0.00 0.00 0.00 87 1023.6
20260905134603 59 77 2.0 6.0 0.00 0.00 0.00 87 1023.5
20260905133104 59 77 2.0 6.0 0.00 0.00 0.00 86 1023.4
20260905132603 59 77 2.0 6.0 0.00 0.00 0.00 87 1023.4
20260905132104 59 77 2.0 6.0 0.00 0.00 0.00 87 1023.4
20260905131103 59 77 2.0 6.0 0.00 0.00 0.00 86 1023.4
20260905130603 59 77 2.0 6.0 0.00 0.00 0.00 86 1023.4
20260905130104 59 77 2.0 6.0 0.00 0.00 0.00 86 1023.4
20260905125103 59 77 2.0 6.0 0.00 0.00 0.00 86 1023.3
20260905124604 59 77 2.0 6.0 0.00 0.00 0.00 85 1023.3
20260905124103 59 77 2.0 6.0 0.00 0.00 0.00 85 1023.3
20260905123604 59 77 2.0 6.0 0.00 0.00 0.00 85 1023.3
20260905123103 59 77 2.0 6.0 0.00 0.00 0.00 84 1023.3
20260905122103 59 77 2.0 6.0 0.00 0.00 0.00 84 1023.3
20260905120604 59 77 2.0 6.0 0.00 0.00 0.00 85 1023.1
20260905120104 59 77 2.0 6.0 0.00 0.00 0.00 85 1023.1
20260905115604 59 77 2.0 6.0 0.00 0.00 0.00 85 1023.1
20260905115104 59 77 2.0 6.0 0.00 0.00 0.00 85 1023.1
20260905114604 59 77 2.0 6.0 0.00 0.00 0.00 86 1023.1
20260905114104 58 77 2.0 6.0 0.00 0.00 0.00 87 1023.1
20260905113104 58 77 2.0 6.0 0.00 0.00 0.00 87 1023.1
20260905112604 58 77 2.0 6.0 0.00 0.00 0.00 87 1023.0
20260905112103 58 77 2.0 6.0 0.00 0.00 0.00 88 1023.0
20260905111603 58 77 2.0 6.0 0.00 0.00 0.00 88 1022.9
20260905111103 58 77 2.0 6.0 0.00 0.00 0.00 89 1022.8
20260905110603 58 77 2.0 6.0 0.00 0.00 0.00 89 1022.8
20260905105603 58 77 2.0 6.0 0.00 0.00 0.00 88 1022.7
20260905105104 58 77 2.0 6.0 0.00 0.00 0.00 88 1022.7
20260905104603 58 77 2.0 6.0 0.00 0.00 0.00 87 1022.6
20260905104103 58 77 2.0 6.0 0.00 0.00 0.00 87 1022.7
20260905103604 58 77 2.0 6.0 0.00 0.00 0.00 86 1022.6
20260905103104 58 77 2.0 6.0 0.00 0.00 0.00 86 1022.5
20260905102604 58 77 2.0 6.0 0.00 0.00 0.00 87 1022.4
20260905102104 59 77 2.0 6.0 0.00 0.00 0.00 87 1022.5
20260905101103 59 77 2.0 6.0 0.00 0.00 0.00 87 1022.5
20260905100604 59 77 2.0 6.0 0.00 0.00 0.00 87 1022.5
20260905100104 59 77 2.0 6.0 0.00 0.00 0.00 87 1022.4
20260905095104 58 77 2.0 6.0 0.00 0.00 0.00 87 1022.3
20260905094604 58 77 2.0 6.0 0.00 0.00 0.00 88 1022.3
20260905093104 58 77 2.0 6.0 0.00 0.00 0.00 88 1022.4
20260905092604 58 77 2.0 6.0 0.00 0.00 0.00 88 1022.4
20260905091603 58 77 2.0 6.0 0.00 0.00 0.00 89 1022.5
20260905091103 59 77 2.0 6.0 0.00 0.00 0.00 88 1022.5
20260905090603 59 77 2.0 6.0 0.00 0.00 0.00 87 1022.6
20260905090103 59 77 2.0 6.0 0.00 0.00 0.00 87 1022.8
20260905085604 59 77 2.0 6.0 0.00 0.00 0.00 87 1022.7
20260905085103 59 77 2.0 6.0 0.00 0.00 0.00 87 1022.6
20260905084603 59 77 2.0 6.0 0.00 0.00 0.00 87 1022.6
20260905084103 59 77 2.0 6.0 0.00 0.00 0.00 87 1022.6
20260905083603 59 77 2.0 6.0 0.00 0.00 0.00 87 1022.7
20260905082603 59 77 2.0 6.0 0.00 0.00 0.00 87 1022.7
20260905082104 59 77 2.0 6.0 0.00 0.00 0.00 87 1022.7
20260905081604 59 77 2.0 6.0 0.00 0.00 0.00 87 1022.7
20260905081103 59 77 2.0 6.0 0.00 0.00 0.00 86 1022.8
20260905080604 59 77 2.0 6.0 0.00 0.00 0.00 86 1022.7
20260905080104 59 77 2.0 6.0 0.00 0.00 0.00 86 1022.6
20260905075603 59 77 2.0 6.0 0.00 0.00 0.00 86 1022.7
20260905075104 59 77 2.0 6.0 0.00 0.00 0.00 86 1022.8
20260905073604 59 77 2.0 6.0 0.00 0.00 0.00 87 1022.8
20260905073104 59 77 2.0 6.0 0.00 0.00 0.00 87 1022.8
20260905072604 59 77 2.0 6.0 0.00 0.00 0.00 88 1022.8
20260905072104 59 77 2.0 6.0 0.00 0.00 0.00 88 1022.8
20260905071603 59 77 2.0 6.0 0.00 0.00 0.00 88 1022.8
20260905070604 59 77 2.0 6.0 0.00 0.00 0.00 86 1022.9
20260905070104 60 77 2.0 6.0 0.00 0.00 0.00 86 1022.9
20260905065604 60 77 2.0 6.0 0.00 0.00 0.00 86 1023.0
20260905065104 60 77 2.0 6.0 0.00 0.00 0.00 86 1023.1
20260905064603 60 77 2.0 6.0 0.00 0.00 0.00 86 1023.1
20260905063604 60 77 2.0 6.0 0.00 0.00 0.00 86 1023.2
20260905062604 60 77 2.0 6.0 0.00 0.00 0.00 85 1023.2
20260905062103 60 77 2.0 6.0 0.00 0.00 0.00 86 1023.2
20260905061604 60 77 2.0 6.0 0.00 0.00 0.00 85 1023.2
20260905061103 60 77 2.0 6.0 0.00 0.00 0.00 86 1023.1
20260905060603 60 77 2.0 6.0 0.00 0.00 0.00 85 1023.1
20260905060103 61 77 2.0 6.0 0.00 0.00 0.00 85 1023.1
20260905055603 60 77 2.0 6.0 0.00 0.00 0.00 85 1023.1
20260905055104 60 77 2.0 6.0 0.00 0.00 0.00 86 1023.1
20260905054604 61 77 2.0 6.0 0.00 0.00 0.00 85 1023.1
20260905054104 61 77 2.0 6.0 0.00 0.00 0.00 84 1023.1
20260905053604 61 77 2.0 6.0 0.00 0.00 0.00 84 1023.1
20260905053104 61 77 2.0 6.0 0.00 0.00 0.00 84 1023.0
20260905052103 61 77 2.0 6.0 0.00 0.00 0.00 84 1023.1
20260905051604 61 77 2.0 6.0 0.00 0.00 0.00 83 1023.0
20260905051104 61 77 2.0 6.0 0.00 0.00 0.00 84 1023.0
20260905050604 62 77 2.0 6.0 0.00 0.00 0.00 84 1023.0
20260905050104 62 77 2.0 6.0 0.00 0.00 0.00 84 1023.1
20260905045604 61 77 2.0 6.0 0.00 0.00 0.00 84 1023.1
20260905045103 61 77 2.0 6.0 0.00 0.00 0.00 85 1023.1
20260905044603 61 77 2.0 6.0 0.00 0.00 0.00 85 1023.1
20260905044103 61 77 2.0 6.0 0.00 0.00 0.00 85 1023.1
20260905043604 61 77 2.0 6.0 0.00 0.00 0.00 87 1023.1
20260905042603 62 77 2.0 6.0 0.00 0.00 0.00 86 1023.2
20260905042103 62 77 2.0 6.0 0.00 0.00 0.00 86 1023.2
20260905041604 62 77 2.0 6.0 0.00 0.00 0.00 85 1023.2
20260905040604 62 77 2.0 6.0 0.00 0.00 0.00 86 1023.2
20260905040104 62 77 2.0 6.0 0.00 0.00 0.00 86 1023.2
20260905035603 62 77 2.0 6.0 0.00 0.00 0.00 86 1023.2
20260905035104 62 77 2.0 6.0 0.00 0.00 0.00 86 1023.2
20260905034604 62 77 2.0 6.0 0.00 0.00 0.00 86 1023.2
20260905034104 62 77 2.0 6.0 0.00 0.00 0.00 86 1023.2
20260905033604 62 77 2.0 6.0 0.00 0.00 0.00 87 1023.2
20260905033103 62 77 2.0 6.0 0.00 0.00 0.00 87 1023.1
20260905032604 62 77 2.0 6.0 0.00 0.00 0.00 88 1023.1
20260905032103 62 77 2.0 6.0 0.00 0.00 0.00 88 1023.1
20260905031605 61 77 2.0 6.0 0.00 0.00 0.00 89 1023.2
20260905031103 61 77 2.0 6.0 0.00 0.00 0.00 89 1023.1
20260905030603 62 77 2.0 6.0 0.00 0.00 0.00 89 1023.1
20260905030104 62 77 2.0 6.0 0.00 0.00 0.00 88 1022.9
20260905025603 62 77 2.0 6.0 0.00 0.00 0.00 87 1022.9
20260905025103 62 77 2.0 6.0 0.00 0.00 0.00 86 1022.8
20260905024104 62 77 2.0 6.0 0.00 0.00 0.00 85 1022.7
20260905023604 63 77 2.0 6.0 0.00 0.00 0.00 85 1022.6
20260905023103 62 77 2.0 6.0 0.00 0.00 0.00 86 1022.5
20260905022603 62 77 2.0 6.0 0.00 0.00 0.00 86 1022.6
20260905022104 63 77 2.0 6.0 0.00 0.00 0.00 85 1022.6
20260905021604 63 77 2.0 6.0 0.00 0.00 0.00 84 1022.6
20260905021104 63 77 2.0 6.0 0.00 0.00 0.00 84 1022.5
20260905020604 63 77 2.0 6.0 0.00 0.00 0.00 84 1022.5
20260905020104 63 77 2.0 6.0 0.00 0.00 0.00 85 1022.4
20260905015603 63 77 2.0 6.0 0.00 0.00 0.00 85 1022.4
20260905015104 63 77 2.0 6.0 0.00 0.00 0.00 85 1022.3
20260905014604 63 77 2.0 6.0 0.00 0.00 0.00 85 1022.3
20260905013604 63 77 2.0 6.0 0.00 0.00 0.00 85 1022.2
20260905013104 63 77 2.0 6.0 0.00 0.00 0.00 85 1022.2
20260905012604 63 77 2.0 6.0 0.00 0.00 0.00 85 1022.2
20260905012103 63 77 2.0 6.0 0.00 0.00 0.00 86 1022.1
20260905011603 64 77 2.0 6.0 0.00 0.00 0.00 85 1022.1
20260905011103 64 77 2.0 6.0 0.00 0.00 0.00 85 1022.0
20260905010104 64 77 2.0 6.0 0.00 0.00 0.00 86 1021.8
20260905005603 64 77 2.0 6.0 0.00 0.00 0.00 87 1021.8
20260905004606 64 77 2.0 6.0 0.00 0.00 0.00 86 1021.8
20260905004103 64 77 2.0 6.0 0.00 0.00 0.00 86 1021.7
20260905003604 64 77 2.0 6.0 0.00 0.00 0.00 85 1021.6
20260905003103 64 77 2.0 6.0 0.00 0.00 0.00 85 1021.6
20260905002604 64 77 2.0 6.0 0.00 0.00 0.00 84 1021.6
20260905002103 64 77 2.0 6.0 0.00 0.00 0.00 83 1021.6
20260905001104 65 77 2.0 6.0 0.00 0.00 0.00 81 1021.5
20260905000604 65 77 2.0 6.0 0.00 0.00 0.00 78 1021.4
20260904235603 65 77 2.0 6.0 0.00 0.00 0.00 76 1021.3
20260904235104 65 77 2.0 6.0 0.00 0.00 0.00 80 1021.2
20260904234603 64 77 2.0 6.0 0.00 0.00 0.00 82 1021.3
20260904234104 65 77 2.0 6.0 0.00 0.00 0.00 82 1021.3
20260904233604 65 77 2.0 6.0 0.00 0.00 0.00 80 1021.3
20260904232604 66 77 2.0 6.0 0.00 0.00 0.00 79 1021.3
20260904232103 66 77 2.0 6.0 0.00 0.00 0.00 79 1021.3
20260904231604 67 77 2.0 6.0 0.00 0.00 0.00 81 1021.3
20260904231104 69 77 2.0 6.0 0.00 0.00 0.00 80 1021.4
20260904230104 73 77 2.0 6.0 0.00 0.00 0.00 71 1021.2
20260904225104 75 77 2.0 6.0 0.00 0.00 0.00 63 1021.4
20260904224603 76 77 2.0 6.0 0.00 0.00 0.00 64 1021.3
20260904224104 76 77 2.0 6.0 0.00 0.00 0.00 61 1021.4
20260904223104 76 77 2.0 6.0 0.00 0.00 0.00 62 1021.3
20260904222603 76 77 2.0 6.0 0.00 0.00 0.00 62 1021.3
20260904221103 76 77 2.0 6.0 0.00 0.00 0.00 60 1021.2
20260904220604 76 77 2.0 6.0 0.00 0.00 0.00 61 1021.1
20260904220104 77 77 2.0 6.0 0.00 0.00 0.00 60 1021.1
20260904214604 77 77 2.0 6.0 0.00 0.00 0.00 59 1021.2
20260904214103 77 77 2.0 6.0 0.00 0.00 0.00 59 1021.3
20260904213603 77 77 2.0 6.0 0.00 0.00 0.00 60 1021.3
20260904212104 77 77 2.0 6.0 0.00 0.00 0.00 60 1021.4
20260904211104 76 77 2.0 6.0 0.00 0.00 0.00 60 1021.6
20260904210604 76 77 2.0 6.0 0.00 0.00 0.00 59 1021.6
20260904210104 77 77 2.0 6.0 0.00 0.00 0.00 59 1021.5
20260904205604 76 77 2.0 6.0 0.00 0.00 0.00 60 1021.6
20260904205104 76 77 2.0 6.0 0.00 0.00 0.00 58 1021.6
20260904204104 76 77 2.0 6.0 0.00 0.00 0.00 58 1021.7
20260904203604 76 77 2.0 6.0 0.00 0.00 0.00 58 1021.8
20260904203104 76 77 2.0 6.0 0.00 0.00 0.00 57 1021.9
20260904202103 76 77 2.0 6.0 0.00 0.00 0.00 57 1021.9
20260904201604 76 77 2.0 6.0 0.00 0.00 0.00 58 1022.0
20260904201103 76 77 2.0 6.0 0.00 0.00 0.00 57 1022.0
20260904195603 76 77 2.0 6.0 0.00 0.00 0.00 57 1022.1
20260904195104 76 77 2.0 6.0 0.00 0.00 0.00 57 1022.2
20260904194604 76 77 2.0 6.0 0.00 0.00 0.00 55 1022.2